Regional Weather Roundup
Issued by NWS Columbia, SC

Home | Current Version | Previous Version | Text Only | Print | Product List | Glossary On
Versions: 1 2 3 4 5 6 7 8 9 10 11 12 13 14 15 16 17 18 19 20 21 22 23 24 25 26 27 28 29 30 31 32 33 34 35 36 37 38 39 40 41 42 43 44 45 46 47 48 49 50
000
ASUS42 KCAE 220410
RWRCAE
REGIONAL WEATHER ROUNDUP
NATIONAL WEATHER SERVICE COLUMBIA SC
1200 AM EDT TUE MAY 22 2018

NOTE: "FAIR" INDICATES FEW OR NO CLOUDS BELOW 12,000 FEET WITH NO
SIGNIFICANT WEATHER AND/OR OBSTRUCTIONS TO VISIBILITY.

NOT ALL STATIONS ARE QUALITY CONTROLLED BY THE NATIONAL
WEATHER SERVICE. USE DATA WITH CAUTION...ESPECIALLY
DEWPOINT OBSERVATIONS.

SCZ001>056-GAZ040-063>065-077-220500-
...UPSTATE SOUTH CAROLINA...

CITY           SKY/WX    TMP DP  RH WIND       PRES   REMARKS
ANDERSON       FAIR      74  67  78 S3        30.14S
LIBERTY        MOCLDY    67  67 100 CALM      30.14S
SPARTANBURG    FAIR      68  64  88 CALM      30.14S
CLEMSON        FAIR      72  67  84 CALM      30.15S
GREENVILLE     FAIR      74  65  73 SE5       30.16R
GREENWOOD      FAIR      73  66  78 S6        30.15S
GREER          FAIR      68  64  87 CALM      30.15S
ROCK HILL      MOCLDY    71  68  90 E3        30.15F
CHESTER        FAIR      72  64  78 CALM      30.16S
LAURENS        FAIR      70  68  94 CALM      30.15S


...CENTRAL SOUTH CAROLINA...

CITY           SKY/WX    TMP DP  RH WIND       PRES   REMARKS
COLUMBIA APT   MOCLDY    77  71  82 S5        30.13S
COLUMBIA OWENS FAIR      76  68  76 CALM      30.14S
MCENTIRE ANGB  FAIR      74  69  86 SE5       30.14
ORANGEBURG     FAIR      73  69  87 S7        30.15S
SUMTER SHAW    MOCLDY    73  68  83 S3        30.13
NEWBERRY       FAIR      70  70 100 CALM      30.17S
AIKEN          FAIR      72  68  88 SE5       30.17F
BARNWELL       MOCLDY    73  70  88 CALM      30.14S
MANNING        FAIR      70  66  88 S5        30.15S
CAMDEN         FAIR      73  68  83 MISG      30.15S
LANCASTER      MOCLDY    72  72 100 CALM      30.15S
WINNSBORO      FAIR      72  68  88 S5        30.15S


...EASTERN AND COASTAL SOUTH CAROLINA...

CITY           SKY/WX    TMP DP  RH WIND       PRES   REMARKS
MYRTLE BEACH   MOCLDY    75  71  87 S6        30.17S
N MYRTLE BCH   FAIR      75  72  90 SW6       30.16R
CONWAY         FAIR      70  70 100 CALM      30.16S
MARION         FAIR      72  68  88 S5        30.16R
HARTSVILLE     FAIR      70  68  94 S3        30.14F
FLORENCE       FAIR      74  70  87 S3        30.15S
DARLINGTON       N/A     74  70  87 S6        30.15S
CHARLESTON APT FAIR      74  71  91 SE6       30.14S
MOUNT PLEASANT FAIR      72  72 100 CALM      30.15S
WALTERBORO     FAIR      70  70 100 CALM      30.15S
BEAUFORT       FAIR      74  72  93 CALM      30.14


...EASTERN GEORGIA...

CITY           SKY/WX    TMP DP  RH WIND       PRES   REMARKS
AUGUSTA BUSH F FAIR      71  70  96 CALM      30.12S
AUGUSTA DANIEL FAIR      76  70  82 SE3       30.14S
THOMSON        FAIR      72  68  86 CALM      30.18S
CLAXTON        FAIR      73  71  95 CALM      30.13S
SYLVANIA       FAIR      72  70  95 CALM      30.14S
STATESBORO     FAIR      72  69  92 SE3       30.13S
SAVANNAH       MOCLDY    75  72  90 SE7       30.13F


...SOUTHERN NORTH CAROLINA...

CITY           SKY/WX    TMP DP  RH WIND       PRES   REMARKS
CHARLOTTE      RAIN      71  69  93 SE7       30.15F FOG
MONROE         FAIR      68  68 100 CALM      30.14F FOG
WADESBORO      MOCLDY    70  66  87 CALM      30.15S
ROCKINGHAM     FAIR      74  71  88 CALM      30.15S
ASHEVILLE      FAIR      65  62  90 CALM      30.20S

$$



USA.gov is the U.S. government's official web portal to all federal, state and local government web resources and services.